Location: USNO
(38.9242°N, 77.0663°W)
Time: 01:50:52
(UTC-04:00)

Vanguard 1 - All Passes

Search period start: 20 June 2018 00:00
Search period end: 30 June 2018 00:00
Orbit: 650 x 3833 km, 34.3° (Epoch: 19 June)

Date Brightness Start Highest point End Pass type
(mag) Time Alt. Az. Time Alt. Az. Time Alt. Az.
20 Jun - 05:21:11 10° S 05:28:12 25° SE 05:38:54 10° E daylight
20 Jun - 07:37:49 10° SW 07:48:42 62° SSE 08:08:15 10° E daylight
20 Jun - 09:57:59 10° W 10:13:08 76° S 10:36:33 10° ESE daylight
20 Jun - 12:20:19 10° W 12:39:25 62° SSW 13:02:02 10° SE daylight
20 Jun - 14:45:59 10° W 15:04:18 33° SW 15:21:47 10° SSE daylight
21 Jun - 05:40:44 10° SSW 05:48:28 33° SE 06:01:12 10° E daylight
21 Jun - 07:58:27 10° WSW 08:09:44 68° SSE 08:30:01 10° E daylight
21 Jun - 10:19:01 10° W 10:34:35 75° S 10:58:05 10° ESE daylight
21 Jun - 12:41:39 10° W 13:00:40 55° SSW 13:22:39 10° SE daylight
21 Jun - 15:08:40 10° W 15:24:57 25° SW 15:40:33 10° S daylight
22 Jun - 06:00:43 10° SSW 06:08:53 41° SE 06:23:11 10° E daylight
22 Jun - 08:19:14 10° WSW 08:30:54 73° S 08:51:47 10° E daylight
22 Jun - 10:40:05 10° W 10:56:02 71° SSW 11:19:28 10° ESE daylight
22 Jun - 13:03:06 10° W 13:21:48 47° SSW 13:42:55 10° SSE daylight
22 Jun - 15:32:26 10° W 15:45:32 19° SW 15:58:12 10° SSW daylight
23 Jun - 04:06:52 10° SSE 04:10:27 13° SE 04:14:53 10° ESE visible
23 Jun - 06:21:00 10° SW 06:29:31 50° SSE 06:45:01 10° E daylight
23 Jun - 08:40:05 10° WSW 08:52:10 75° S 09:13:31 10° E daylight
23 Jun - 11:01:11 10° W 11:17:26 66° SSW 11:40:39 10° ESE daylight
23 Jun - 13:24:47 10° W 13:42:49 40° SW 14:02:48 10° SSE daylight
23 Jun - 15:59:01 10° WSW 16:06:06 12° SW 16:13:04 10° SW daylight
24 Jun - 04:25:18 10° S 04:30:35 20° SE 04:38:10 10° E visible
24 Jun - 06:41:28 10° SW 06:50:18 59° SSE 07:06:47 10° E daylight
24 Jun - 09:01:00 10° W 09:13:29 75° S 09:35:12 10° ESE daylight
24 Jun - 11:22:20 10° W 11:38:46 60° SSW 12:01:36 10° SE daylight
24 Jun - 13:46:47 10° W 14:03:45 32° SW 14:22:11 10° SSE daylight
25 Jun - 04:44:46 10° SSW 04:50:51 28° SE 05:00:28 10° E visible
25 Jun - 07:02:05 10° WSW 07:11:14 66° SSE 07:28:31 10° E daylight
25 Jun - 09:21:57 10° W 09:34:49 73° S 09:56:48 10° ESE daylight
25 Jun - 11:43:34 10° W 12:00:03 53° SSW 12:22:14 10° SE daylight
25 Jun - 14:09:23 10° W 14:24:35 25° SW 14:40:52 10° S daylight
26 Jun - 05:04:43 10° SSW 05:11:15 37° SE 05:22:23 10° E visible
26 Jun - 07:22:49 10° WSW 07:32:17 70° S 07:50:15 10° E daylight
26 Jun - 09:42:55 10° W 09:56:10 69° SSW 10:18:14 10° ESE daylight
26 Jun - 12:04:56 10° W 12:21:14 45° SSW 12:42:32 10° SSE daylight
26 Jun - 14:33:05 10° W 14:45:24 18° SW 14:58:21 10° SSW daylight
27 Jun - 05:24:57 10° SW 05:31:50 46° SSE 05:44:08 10° E daylight
27 Jun - 07:43:37 10° WSW 07:53:26 73° S 08:11:58 10° E daylight
27 Jun - 10:03:56 10° W 10:17:29 63° SSW 10:39:28 10° ESE daylight
27 Jun - 12:26:32 10° W 12:42:21 38° SW 13:02:23 10° SSE daylight
27 Jun - 14:59:52 10° WSW 15:06:13 12° SW 15:12:44 10° SSW daylight
28 Jun - 03:29:41 10° S 03:33:23 16° SE 03:38:12 10° E visible
28 Jun - 05:45:25 10° SW 05:52:33 55° SSE 06:05:48 10° E daylight
28 Jun - 08:04:28 10° W 08:14:38 73° S 08:33:38 10° ESE daylight
28 Jun - 10:25:01 10° W 10:38:45 57° SSW 11:00:26 10° SE daylight
28 Jun - 12:48:29 10° W 13:03:25 30° SW 13:21:41 10° SSE daylight
29 Jun - 03:48:58 10° SSW 03:53:41 23° SE 04:00:34 10° E visible
29 Jun - 06:06:01 10° WSW 06:13:25 63° SSE 06:27:26 10° E daylight
29 Jun - 08:25:21 10° W 08:35:51 70° S 08:55:13 10° ESE daylight
29 Jun - 10:46:10 10° W 11:00:01 49° SSW 11:21:05 10° SE daylight
29 Jun - 13:11:04 10° W 13:24:27 23° SW 13:40:12 10° S daylight
